Location: *
(48.8489°N, 2.3218°E)
Time: 23:56:38
(UTC+00:00)

Cosmos 2369 - Pass Details

Date: 23 August 2019
Orbit: 841 x 854 km, 71.0° (Epoch: 21 September)

Event Time Altitude Azimuth Distance (km) Brightness Sun altitude
Rises 20:46:59 0° 330° (NNW) 3,408 8.3 -17.2°
Reaches altitude 10° 20:49:26 10° 329° (NNW) 2,469 7.3 -17.5°
Maximum altitude 20:55:05 75° 245° (WSW) 875 3.8 -18.2°
Enters shadow 20:58:11 28° 165° (SSE) 1,540 4.6 -18.5°
